OK2ZA-6 Weather Reports


time (UTC)temp
C
wind
direction
speed
KPH
gust
KPH
rain 1hr
cm
rain 24hr
cm
rain mn
cm
humidity
%
barometer
mb
20260504020004 12 112 11.3 20.9 0.00 0.00 0.00 57 1014.4
20260504015003 12 115 12.9 20.9 0.00 0.00 0.00 56 1014.5
20260504014004 12 110 12.9 20.9 0.00 0.00 0.00 55 1014.5
20260504013004 12 111 12.9 20.9 0.00 0.00 0.00 55 1014.5
20260504012004 12 111 12.9 24.1 0.00 0.00 0.00 54 1014.4
20260504011004 12 111 14.5 24.1 0.00 0.00 0.00 54 1014.3
20260504010004 12 106 12.9 20.9 0.00 0.00 0.00 53 1014.3
20260504005004 13 106 14.5 20.9 0.00 0.00 0.00 52 1014.3
20260504004003 13 105 12.9 27.4 0.00 0.00 0.00 52 1014.5
20260504003004 13 105 14.5 24.1 0.00 0.00 0.00 51 1014.5
20260504002004 13 102 12.9 24.1 0.00 0.00 0.00 51 1014.5
20260504001004 13 103 14.5 25.7 0.00 0.00 0.00 50 1014.6
20260504000004 13 103 14.5 25.7 0.00 0.00 0.00 50 1014.5
20260503235004 13 106 14.5 25.7 0.00 0.00 0.00 50 1014.6
20260503234003 13 108 14.5 24.1 0.00 0.00 0.00 49 1014.7
20260503233004 13 105 14.5 24.1 0.00 0.00 0.00 49 1014.7
20260503232003 13 101 16.1 25.7 0.00 0.00 0.00 49 1014.8
20260503231004 13 104 12.9 24.1 0.00 0.00 0.00 48 1014.8
20260503230004 13 102 12.9 24.1 0.00 0.00 0.00 48 1014.8
20260503225004 13 99 12.9 20.9 0.00 0.00 0.00 48 1015.0
20260503224003 13 101 12.9 20.9 0.00 0.00 0.00 48 1015.0
20260503223003 14 102 11.3 20.9 0.00 0.00 0.00 48 1015.1
20260503222003 14 105 14.5 20.9 0.00 0.00 0.00 48 1015.1
20260503221003 14 103 11.3 20.9 0.00 0.00 0.00 48 1015.1
20260503220005 14 106 11.3 22.5 0.00 0.00 0.00 48 1015.2
20260503215004 14 110 12.9 24.1 0.00 0.00 0.00 48 1015.2
20260503214003 14 111 14.5 24.1 0.00 0.00 0.00 48 1015.1
20260503213003 15 113 14.5 24.1 0.00 0.00 0.00 48 1015.1
20260503212003 15 112 12.9 24.1 0.00 0.00 0.00 48 1015.1
20260503211004 15 106 12.9 24.1 0.00 0.00 0.00 48 1015.0
20260503210005 15 112 12.9 20.9 0.00 0.00 0.00 48 1015.2
20260503205004 15 112 14.5 27.4 0.00 0.00 0.00 48 1015.2
20260503204003 15 105 14.5 24.1 0.00 0.00 0.00 48 1015.1
20260503203003 16 109 16.1 27.4 0.00 0.00 0.00 48 1015.2
20260503202004 16 111 16.1 27.4 0.00 0.00 0.00 48 1015.2
20260503201004 16 108 16.1 27.4 0.00 0.00 0.00 49 1015.2
20260503200004 16 110 16.1 25.7 0.00 0.00 0.00 49 1015.3
20260503195004 16 108 14.5 22.5 0.00 0.00 0.00 49 1015.5
20260503194004 16 105 12.9 22.5 0.00 0.00 0.00 50 1015.7
20260503193004 16 111 11.3 19.3 0.00 0.00 0.00 50 1015.7
20260503192004 17 115 9.7 16.1 0.00 0.00 0.00 49 1015.7
20260503191004 17 115 11.3 20.9 0.00 0.00 0.00 48 1015.7
20260503190004 17 117 11.3 19.3 0.00 0.00 0.00 48 1015.7
20260503185004 17 120 12.9 20.9 0.00 0.00 0.00 47 1015.6
20260503184004 17 121 12.9 20.9 0.00 0.00 0.00 47 1015.5
20260503183004 18 123 12.9 22.5 0.00 0.00 0.00 46 1015.5
20260503182005 18 124 11.3 20.9 0.00 0.00 0.00 46 1015.4
20260503181004 18 126 12.9 24.1 0.00 0.00 0.00 45 1015.2
20260503180004 18 130 12.9 24.1 0.00 0.00 0.00 44 1015.3
20260503175003 18 128 12.9 20.9 0.00 0.00 0.00 44 1015.2
20260503174003 19 126 16.1 27.4 0.00 0.00 0.00 43 1015.2
20260503173004 19 130 16.1 25.7 0.00 0.00 0.00 42 1015.1
20260503172004 20 129 19.3 30.6 0.00 0.00 0.00 41 1015.1
20260503171004 20 127 17.7 35.4 0.00 0.00 0.00 41 1015.1
20260503151004 21 139 20.9 37.0 0.00 0.00 0.00 39 1015.6
20260503131004 21 141 22.5 35.4 0.00 0.00 0.00 41 1016.8
20260503081003 16 137 17.7 35.4 0.00 0.00 0.00 51 1019.4
20260503072003 14 126 11.3 19.3 0.00 0.00 0.00 55 1019.3
20260503071004 13 135 12.9 27.4 0.00 0.00 0.00 58 1019.3
20260503055003 12 103 17.7 29.0 0.00 0.00 0.00 59 1018.7
20260503054003 12 102 14.5 22.5 0.00 0.00 0.00 60 1018.6
20260503053003 11 101 12.9 24.1 0.00 0.00 0.00 61 1018.5
20260503052003 11 94 14.5 20.9 0.00 0.00 0.00 61 1018.5
20260503051003 11 94 12.9 24.1 0.00 0.00 0.00 62 1018.5
20260503050003 11 89 12.9 22.5 0.00 0.00 0.00 62 1018.4
20260503045003 11 85 14.5 24.1 0.00 0.00 0.00 63 1018.4
20260503044003 10 85 14.5 24.1 0.00 0.00 0.00 63 1018.4
20260503043003 10 83 11.3 20.9 0.00 0.00 0.00 63 1018.4
20260503042003 10 85 9.7 19.3 0.00 0.00 0.00 63 1018.5
20260503041004 10 86 12.9 19.3 0.00 0.00 0.00 63 1018.4
20260503040004 10 83 12.9 22.5 0.00 0.00 0.00 63 1018.3
20260503035003 10 83 12.9 20.9 0.00 0.00 0.00 63 1018.4
20260503034003 10 82 11.3 20.9 0.00 0.00 0.00 63 1018.4
20260503033003 10 81 12.9 20.9 0.00 0.00 0.00 62 1018.4
20260503032004 10 82 11.3 20.9 0.00 0.00 0.00 60 1018.3
20260503031003 11 85 9.7 17.7 0.00 0.00 0.00 57 1018.3
20260503030004 11 82 12.9 19.3 0.00 0.00 0.00 55 1018.2
20260503025004 12 85 11.3 19.3 0.00 0.00 0.00 53 1018.2
20260503024003 12 88 9.7 17.7 0.00 0.00 0.00 52 1018.3
20260503023003 12 84 9.7 16.1 0.00 0.00 0.00 51 1018.4
20260503022003 12 87 8.0 14.5 0.00 0.00 0.00 51 1018.4
20260503021003 12 85 9.7 17.7 0.00 0.00 0.00 51 1018.4